Flag for Australia Weather past 2 weeks in Brisbane, Queensland, Australia

Now
66 °F

Sunny.


Feels Like: 66 °F
Forecast: 41 / 75 °F
Wind: 7 mph from Southwest

Location: Brisbane Airport M. O

Current Time: Sep 2, 2015 at 9:25:24 AM

Latest Report: Sep 2, 2015 at 9:00 AM


Visibility: 10 mi

Pressure: 30.09 "Hg

Humidity: 37%

Dew point: 39 °F

Location of BrisbaneLocation

Historic Weather in Brisbane — Graph

°F

Brisbane temperature yesterday

Maximum temperature yesterday: 75 °F (at 2:30 PM)
Minimum temperature yesterday: 50 °F (at 3:30 AM)
Average temperature yesterday: 62 °F

Past Weeks' High & Low Weather Summary

 TemperatureHumidityPressure
High79 °F (Aug 25, 12:00 PM)100% (Aug 21, 8:00 PM)30.33 "Hg (Aug 21, 8:00 PM)
Low45 °F (Sep 2, 5:00 AM)13% (Sep 1, 4:30 PM)29.89 "Hg (Aug 31, 4:00 PM)
Average64 °F74%30.12 "Hg
* Reported Aug 18 7:00 AM — Sep 2 7:30 AM, Brisbane, Weather by CustomWeather, © 2015

Note: Actual official high and low records may vary slightly from our data, if they occured in-between our weather recording intervals... More about our weather records

Advertising

Brisbane weather history for previous 24 hours

 ConditionsComfort  
Time TempWeatherWind HumidityBarometerVisibility
7:30 AM
Wed, Sep 2
54 °FSunny.5 mph58%30.09 "Hg10 mi
7:00 AM52 °FSunny.5 mph62%30.09 "Hg10 mi
6:30 AM48 °FSunny.5 mph71%30.07 "Hg10 mi
6:00 AM45 °FSunny.5 mph81%30.07 "Hg10 mi
5:30 AM45 °FSunny.No wind76%30.07 "Hg10 mi
5:00 AM45 °FSunny.2 mph76%30.04 "Hg10 mi
4:00 AM46 °FClear.6 mph71%30.01 "Hg10 mi
3:30 AM48 °FClear.3 mph66%30.01 "Hg10 mi
3:00 AM48 °FClear.5 mph66%30.04 "Hg10 mi
2:30 AM48 °FClear.No wind66%30.04 "Hg10 mi
2:00 AM48 °FClear.1 mph66%30.04 "Hg10 mi
1:00 AM50 °FClear.5 mph62%30.04 "Hg10 mi
12:30 AM46 °FClear.6 mph82%30.01 "Hg10 mi
12:00 AM52 °FClear.5 mph67%30.01 "Hg10 mi
11:00 PM
Tue, Sep 1
55 °FClear.6 mph63%30.01 "Hg10 mi
10:00 PM55 °FClear.6 mph72%30.01 "Hg10 mi
9:30 PM57 °FClear.7 mph77%30.01 "Hg10 mi
9:00 PM57 °FPassing clouds.5 mph88%29.98 "HgN/A
8:00 PM61 °FClear.10 mph83%29.98 "Hg10 mi
7:30 PM61 °FClear.8 mph72%29.98 "Hg10 mi
7:00 PM63 °FClear.8 mph64%29.98 "Hg10 mi
6:30 PM64 °FClear.13 mph68%29.95 "Hg10 mi
6:00 PM68 °FClear.12 mph24%29.95 "Hg10 mi
5:00 PM73 °FClear.14 mph16%29.92 "Hg10 mi
4:30 PM75 °FSunny.14 mph13%29.92 "Hg10 mi
4:00 PM75 °FSunny.15 mph15%29.92 "Hg10 mi
3:30 PM75 °FSunny.15 mph15%29.92 "Hg10 mi
3:00 PM75 °FSunny.14 mph16%29.92 "Hg10 mi
2:30 PM75 °FSunny.10 mph14%29.92 "Hg10 mi
1:30 PM73 °FSunny.10 mph20%29.95 "Hg10 mi
1:00 PM73 °FPassing clouds.10 mph22%29.95 "HgN/A
12:30 PM73 °FPassing clouds.14 mph22%29.95 "HgN/A
12:00 PM72 °FPassing clouds.9 mph29%29.98 "HgN/A
11:30 AM70 °FPassing clouds.10 mph31%30.01 "HgN/A
11:00 AM70 °FSunny.10 mph33%30.01 "Hg10 mi
10:30 AM68 °FSunny.10 mph35%30.04 "Hg10 mi
10:00 AM66 °FPassing clouds.8 mph37%30.04 "HgN/A
9:30 AM64 °FSunny.10 mph40%30.04 "Hg10 mi
9:00 AM64 °FSunny.9 mph40%30.04 "Hg10 mi
Weather by CustomWeather, © 2015

See weather overviewHow to use our weather pages